Location: Belfast
(54.5830°N, 5.9330°W)
Time: 12:59:58
(UTC+00:00)

ISS - Pass Details

Date: 14 December 2017
Orbit: 402 x 406 km, 51.6° (Epoch: 16 December)

Event Time Altitude Azimuth Distance (km) Brightness Sun altitude
Rises 17:42:54 0° 276° (W) 2,333 1.2 -13.8°
Reaches altitude 10° 17:45:19 10° 259° (W) 1,469 0.4 -14.2°
Maximum altitude 17:47:49 20° 209° (SSW) 995 -1.2 -14.5°
Drops below altitude 10° 17:50:20 10° 159° (SSE) 1,462 -1.0 -14.8°
Enters shadow 17:52:25 - 144° (SE) 2,200 -0.3 -15.1°
